Dewpoint
59 59 60 59 60 60 59 60 60 61 61 60 60 60 59 58 57 57 59 59 57 61 60 61 60 60 58 58 59 59 50 21 18 15 11 18 38 53 55 56 57 59 54 32 24 17 15 17 18 18 7 12 17 17 23 14 29 27 12 13 10 11 15 19 12 15 16 14 14 20 23 29 27 23 18 16 15 16 16 19 19 18 16 13 13 18 18 22
57 59 60 58 59 59 59 59 60 60 61 61 60 60 59 58 58 59 58 58 59 61 60 60 59 58 59 59 59 57 33 22 15 13 14 32 53 55 56 56 57 58 48 22 26 22 15 13 20 12 5 11 17 15 17 16 18 22 17 12 6 18 15 18 10 14 8 6 16 19 20 28 27 17 17 16 15 15 16 16 16 17 17 15 16 17 19 18
58 59 58 58 59 59 58 58 59 59 60 60 60 60 60 58 58 59 58 58 60 60 59 58 58 58 58 58 57 56 32 19 19 13 12 49 52 56 55 56 58 58 27 22 25 23 22 19 22 15 12 6 11 13 15 13 16 20 15 10 13 19 19 16 9 11 12 12 12 18 19 23 23 16 13 13 13 14 15 16 15 15 16 15 16 16 17 17
58 59 59 59 59 59 59 58 57 58 60 60 60 59 59 58 58 57 59 59 59 60 60 59 58 57 57 57 59 44 23 18 14 19 19 49 55 55 55 55 57 52 35 33 30 30 24 16 15 12 14 11 14 10 12 14 12 15 10 9 13 19 11 8 11 8 10 13 12 18 15 18 18 15 13 13 12 12 12 15 15 14 15 15 15 15 15 16
59 59 59 59 56 58 59 57 58 58 60 61 58 59 58 58 59 59 60 58 57 59 60 60 60 58 57 57 53 23 19 9 12 20 19 53 54 53 52 53 56 39 31 34 19 19 25 19 14 17 14 10 17 10 9 8 7 17 12 16 12 12 6 7 7 8 8 12 13 14 13 14 12 13 13 12 14 13 13 13 16 15 14 15 15 15 14 15
59 58 58 58 57 58 59 59 59 60 60 60 59 60 57 59 58 59 60 57 58 60 60 60 59 58 57 53 34 28 12 1 19 15 50 47 52 51 51 51 51 33 24 16 16 13 12 10 9 13 13 11 11 7 8 5 11 8 12 9 12 7 6 7 9 10 9 10 11 12 14 11 11 10 12 12 14 13 18 16 19 17 17 15 15 14 13 14
58 58 57 57 58 59 57 57 59 59 60 60 60 60 58 57 59 58 60 60 59 59 60 60 58 57 57 49 38 26 19 18 10 18 45 50 48 48 46 43 46 28 21 16 17 13 12 9 9 19 15 15 14 8 11 17 14 9 9 9 5 8 5 8 7 11 8 7 7 13 14 11 11 9 11 11 12 15 18 19 22 21 20 17 15 14 13 14
57 57 56 56 56 57 58 57 57 58 59 59 59 59 57 56 57 59 59 59 60 60 58 58 58 57 52 33 28 23 23 15 9 21 42 48 30 28 40 27 22 23 18 18 19 14 12 9 7 21 13 7 15 10 19 14 18 13 12 15 5 7 6 8 8 8 9 8 10 10 7 9 11 10 8 7 8 10 10 11 21 17 15 15 15 15 15 14
57 57 56 55 55 56 56 57 58 57 56 58 58 58 58 56 57 57 58 58 59 59 58 58 58 58 47 30 20 14 14 18 15 20 27 20 21 20 21 18 19 16 18 19 19 17 11 12 13 11 11 18 15 16 20 12 15 16 13 8 6 6 9 9 9 9 9 9 9 5 5 6 8 11 7 6 6 10 13 10 15 12 12 13 15 15 14 14
58 58 56 56 55 55 55 55 56 57 57 57 58 58 58 57 57 57 57 57 58 59 59 58 58 53 34 25 22 11 17 21 20 21 22 21 20 19 19 21 16 15 15 15 19 20 16 12 15 14 16 15 18 20 22 13 12 21 20 14 5 6 13 9 7 7 9 8 8 3 3 5 8 8 7 11 11 14 9 9 16 11 11 11 14 16 16 14
58 57 56 56 56 55 55 55 55 55 56 57 57 58 58 57 56 56 57 58 57 58 59 58 57 41 25 18 14 10 18 16 20 20 21 22 20 19 19 21 18 16 13 12 18 21 21 14 18 19 22 15 18 16 17 15 18 13 12 15 13 14 18 9 8 8 8 6 8 5 5 7 9 8 7 9 13 13 8 8 12 14 11 10 12 14 15 14
58 57 56 57 56 55 55 55 54 54 56 56 57 57 58 56 55 56 57 58 57 58 57 58 52 27 25 21 17 15 17 16 21 19 21 21 20 23 22 24 17 16 13 11 11 15 22 23 25 23 15 21 14 18 17 23 14 14 14 11 16 17 13 14 8 8 7 6 8 7 8 8 8 7 9 10 12 10 9 8 12 15 16 14 12 12 12 13
58 57 57 57 57 56 55 54 54 54 55 57 57 57 56 56 56 56 56 57 56 55 57 58 48 33 27 21 15 15 16 21 21 18 16 21 20 22 23 21 18 17 14 12 12 16 27 29 26 24 28 19 20 12 19 18 17 18 16 14 16 19 16 18 9 8 8 7 9 10 10 14 13 10 12 13 12 11 10 8 9 10 11 14 13 12 13 16
57 56 56 56 55 55 55 54 54 55 56 56 57 56 56 56 56 56 56 57 58 59 57 55 36 29 22 18 19 18 19 33 19 16 16 22 18 18 20 21 21 20 21 13 15 26 30 29 26 27 31 23 18 26 19 23 21 10 15 22 13 14 16 19 10 8 6 10 9 13 9 10 10 10 12 13 14 11 10 8 8 9 10 13 13 13 13 15
57 56 55 55 55 55 56 54 55 55 55 57 55 55 56 56 57 56 57 57 57 56 56 49 31 28 21 20 18 20 46 18 14 15 17 18 18 18 18 20 20 19 20 14 15 26 28 27 23 19 17 25 26 17 16 20 20 22 12 16 20 13 18 19 22 7 6 8 12 13 8 9 9 10 13 12 11 9 8 8 8 8 10 10 11 13 14 15
56 55 57 57 55 54 54 55 54 55 55 55 55 56 56 57 57 57 58 58 55 57 45 34 33 26 22 16 12 30 15 13 13 16 17 20 19 18 19 20 20 20 17 16 18 19 25 26 22 20 21 17 22 20 20 14 18 20 10 13 12 16 18 13 11 12 12 9 8 12 11 9 7 10 12 14 14 10 11 9 8 8 9 10 12 13 14 15
55 55 56 56 55 54 55 55 54 55 55 55 56 56 57 57 57 57 55 52 47 45 27 26 30 28 16 15 18 13 13 14 16 17 17 20 20 20 21 19 17 18 20 16 20 17 17 18 22 19 26 17 23 20 9 12 14 15 17 14 15 11 14 14 17 14 13 9 8 10 11 10 9 10 13 16 16 15 14 10 8 9 11 12 12 13 14 16
55 55 56 55 55 55 55 55 54 55 55 55 56 56 52 53 56 51 42 44 39 39 37 34 30 17 13 16 9 10 16 17 17 17 17 18 23 22 21 20 19 17 20 16 16 13 16 15 23 17 21 22 18 16 7 10 7 7 9 12 15 14 15 15 13 16 9 17 11 10 11 11 10 11 15 16 15 14 14 9 9 10 12 12 13 15 16 17
55 56 54 55 56 55 55 55 55 55 55 55 54 55 53 50 40 33 33 33 32 26 21 23 22 15 12 14 17 17 17 18 17 18 17 19 22 22 23 22 21 14 17 12 15 13 21 20 25 18 13 17 17 18 16 17 16 15 15 14 13 10 11 10 15 19 15 12 14 12 9 9 11 15 16 17 14 13 13 11 11 11 12 14 17 19 19 20
54 54 54 56 55 56 55 55 55 55 54 44 37 35 35 29 29 27 33 30 25 26 24 26 27 25 22 13 14 16 18 16 13 14 18 20 24 21 19 20 23 22 19 15 21 20 25 17 14 16 18 19 18 20 19 17 17 19 17 14 13 12 13 14 15 18 22 16 14 13 14 15 14 15 16 17 16 15 14 14 14 15 17 19 20 20 20 20
55 55 54 54 54 55 55 55 55 54 51 39 37 30 16 17 14 16 22 23 25 30 27 28 25 16 18 16 16 19 17 17 15 15 18 21 22 16 15 15 22 17 18 23 21 27 22 17 20 22 20 19 18 18 19 16 16 15 13 11 13 13 12 12 12 19 23 16 17 17 15 15 14 16 16 17 18 17 17 18 18 19 19 19 19 19 20 21
54 53 53 54 54 55 56 55 55 52 47 38 35 26 26 25 24 22 19 15 25 33 32 30 30 17 21 19 18 19 17 15 15 16 19 21 18 11 19 16 17 16 21 25 20 22 20 18 23 24 23 21 22 20 18 15 15 18 13 14 12 13 15 16 19 21 20 18 16 17 14 14 13 15 16 16 17 18 18 18 18 17 18 19 19 20 21 21
53 53 53 54 54 55 56 56 54 49 37 35 32 34 34 38 42 42 26 25 22 30 29 27 24 18 19 21 23 22 16 16 18 17 19 22 20 21 25 21 22 23 22 23 19 20 16 21 19 20 22 15 13 18 16 17 18 12 12 10 12 16 10 12 18 19 18 15 16 16 14 15 13 15 15 16 17 17 18 19 19 20 20 19 19 21 21 21
53 53 53 53 55 55 56 55 52 45 38 36 37 37 37 41 41 38 25 16 20 27 27 27 23 22 18 18 19 20 19 20 18 17 21 20 21 23 27 23 20 23 26 25 23 20 19 19 18 21 19 14 15 15 14 13 12 18 15 12 12 11 11 12 13 16 20 17 19 17 10 10 13 14 15 16 17 17 18 18 19 20 21 22 22 22 22 21
54 53 53 54 54 54 55 48 40 39 39 34 37 40 41 41 42 35 18 16 22 24 31 27 26 23 21 24 26 24 20 24 21 18 20 21 21 21 23 27 17 14 22 25 23 22 21 21 19 17 17 17 14 15 18 12 11 15 17 15 12 12 13 15 14 14 11 9 11 10 8 3 11 14 15 16 15 16 17 18 18 19 21 21 21 22 22 23
54 53 53 54 54 53 52 29 20 39 37 32 35 42 40 40 42 34 23 17 6 13 26 22 24 21 22 21 27 24 24 21 21 20 32 23 27 22 20 17 18 17 19 22 22 21 20 19 17 17 18 18 17 13 15 15 13 11 14 18 17 15 15 14 13 13 8 4 10 13 4 4 11 13 14 15 15 15 16 17 18 19 20 21 22 22 21 21
53 53 53 54 53 50 27 23 21 35 22 27 41 43 42 41 41 36 25 12 6 16 19 26 23 24 25 25 26 21 11 12 19 21 19 25 24 29 18 18 20 25 24 23 18 7 20 18 18 18 15 17 16 15 15 17 13 14 18 18 15 15 15 15 14 12 12 15 16 15 10 5 2 12 15 16 15 15 16 17 17 18 19 20 20 21 21 21
54 54 54 54 53 48 25 29 29 31 21 25 40 41 40 40 39 30 19 -4 -5 23 18 24 26 29 23 25 25 18 15 19 14 20 21 25 29 25 19 17 17 19 21 12 0 15 18 20 18 17 18 17 16 17 15 17 12 16 18 17 15 16 15 15 14 13 13 10 11 11 14 7 5 11 15 16 13 14 15 16 17 18 19 20 20 21 21 21
54 54 55 54 54 50 38 33 30 29 33 41 41 41 43 35 30 19 13 -3 3 17 25 24 31 20 23 26 21 24 24 23 15 19 27 27 24 20 17 19 20 22 23 19 10 17 20 21 21 18 18 17 18 19 19 19 14 17 19 19 18 18 17 16 13 12 9 7 7 9 11 3 3 12 14 14 13 13 15 16 16 18 19 20 20 21 21 21
54 54 55 53 43 37 36 38 34 32 42 41 41 39 36 31 22 14 -6 -12 19 6 24 21 17 16 25 21 20 22 17 19 25 25 25 20 21 24 25 26 23 21 19 21 17 20 19 28 26 19 19 19 19 18 20 20 18 20 17 13 13 12 13 12 10 6 3 1 7 9 11 6 3 10 13 13 14 14 16 15 16 18 19 20 21 21 21 21
54 54 54 50 32 33 32 27 28 41 41 43 40 36 31 20 13 3 -13 -6 19 19 22 19 18 24 22 19 15 21 22 22 21 23 21 23 17 21 21 19 21 18 18 16 15 16 20 23 21 22 27 22 18 17 21 21 20 15 12 11 8 7 5 7 6 5 -1 -1 5 6 10 8 2 4 12 15 16 16 14 14 16 17 18 19 20 21 21 21
54 54 52 42 37 30 23 24 29 43 43 43 37 28 25 2 18 -2 -10 16 3 10 14 14 22 21 20 22 16 18 17 19 21 21 18 19 16 15 17 12 14 7 10 9 11 15 13 19 23 21 30 17 18 10 12 19 17 14 12 9 3 4 2 -5 -2 -3 -3 -1 7 8 9 8 8 11 16 17 16 15 15 16 16 16 17 18 20 21 21 22
54 53 49 47 43 35 34 32 42 43 42 38 29 24 11 9 -9 2 4 11 -2 16 16 21 21 21 19 15 16 20 21 15 20 19 21 19 19 17 20 17 16 6 5 9 8 9 10 14 18 19 19 23 16 10 10 9 10 12 11 5 1 -3 -9 -5 -1 -5 -5 4 6 7 7 6 9 14 17 17 17 16 16 16 16 16 17 18 20 21 21 23
53 47 35 41 39 36 37 42 42 43 35 34 27 13 17 7 -9 23 5 10 8 21 22 21 21 19 17 11 15 19 12 15 18 16 20 15 16 11 16 16 18 15 10 10 6 6 1 6 9 14 9 17 16 13 13 11 11 12 12 9 3 1 -2 -1 -8 -3 2 5 5 6 2 -4 7 10 17 17 17 17 17 17 18 18 18 19 20 22 22 22
52 45 40 41 40 43 41 40 42 41 35 26 14 18 7 -3 -0 1 5 12 18 20 18 20 15 11 11 13 14 20 14 12 19 16 14 16 13 14 14 11 18 16 15 12 7 5 6 4 8 17 16 17 14 19 16 11 9 11 13 11 6 2 8 1 -2 -3 -4 1 2 -2 -2 7 11 17 20 19 19 19 19 18 19 19 20 20 21 22 23 23
46 39 40 35 38 36 40 41 40 40 30 19 16 11 2 0 3 7 8 19 19 18 20 18 13 11 10 12 14 14 17 13 19 13 9 15 16 15 18 14 15 17 10 6 4 3 10 6 9 14 15 15 15 18 18 14 4 9 9 4 6 13 9 1 8 6 3 -3 -1 -3 10 12 15 15 17 17 18 18 18 18 19 19 19 20 21 23 23 23
38 37 25 33 32 36 38 41 39 32 23 19 17 7 7 10 10 14 30 20 20 22 14 10 8 9 7 9 10 14 15 16 15 11 8 12 9 14 17 17 16 16 16 10 11 8 3 8 12 11 10 14 17 19 17 16 14 12 3 8 11 12 10 5 -0 -2 -10 -3 -0 5 5 4 7 -4 16 16 16 17 17 18 19 19 19 19 21 23 24 24
37 34 30 31 32 38 41 40 34 26 25 20 19 27 22 13 22 23 26 26 22 19 13 10 8 13 6 10 14 12 18 9 13 13 9 11 9 19 18 15 19 15 20 18 7 11 11 8 10 12 13 13 14 16 10 15 18 12 11 13 9 2 5 8 -2 -4 -4 -1 -3 1 2 2 8 6 15 15 15 16 17 19 19 19 20 20 20 23 24 22
34 31 21 26 34 37 40 33 28 22 18 19 13 21 22 18 23 23 24 27 21 19 12 14 9 12 13 10 12 17 16 12 13 13 5 9 8 15 16 18 14 20 21 18 13 15 13 4 9 11 12 13 10 11 8 10 12 12 13 11 13 8 2 1 1 1 2 2 -2 2 -5 4 7 9 15 14 16 16 18 19 18 18 19 21 21 21 22 20
27 23 19 27 31 37 37 31 25 22 20 16 11 14 19 22 26 27 26 28 22 13 13 15 17 12 14 14 17 11 16 15 15 14 9 11 11 17 18 21 19 18 20 20 13 18 12 9 3 9 11 10 10 12 9 10 8 10 8 5 8 0 9 8 2 3 5 -0 -2 -5 2 -2 9 16 14 16 18 20 20 19 19 19 20 21 21 22 21 19
31 24 20 30 30 34 29 26 20 21 20 21 22 24 26 23 27 24 27 29 27 24 18 17 18 16 16 17 15 19 15 16 16 12 14 12 12 8 19 21 22 20 20 17 14 13 5 9 5 10 11 9 9 14 11 11 11 10 9 6 9 6 9 6 7 -3 -4 0 1 0 6 0 9 18 19 19 20 21 21 20 19 19 18 19 16 20 17 17
23 10 16 25 30 31 27 21 17 22 20 17 14 23 28 34 24 23 26 27 24 24 25 22 21 20 21 19 16 17 17 15 16 11 12 11 14 14 18 18 24 24 15 12 11 15 12 11 10 10 11 10 10 12 15 14 12 12 11 12 10 5 3 3 1 2 0 5 3 6 5 8 17 18 20 20 21 21 20 20 18 16 15 13 14 17 14 17
20 13 25 32 29 29 19 14 23 24 17 21 23 24 26 24 24 23 22 23 20 23 21 21 21 15 17 19 19 18 17 13 16 13 12 15 16 19 21 20 22 18 18 12 16 16 22 5 1 7 9 7 8 10 12 14 13 13 12 12 12 10 6 7 5 5 4 1 5 7 7 11 17 20 21 22 22 23 22 19 17 14 14 12 13 14 12 13
23 18 21 30 29 30 19 11 12 17 23 25 23 24 23 26 23 21 22 24 23 22 18 19 18 18 18 20 19 18 18 7 13 14 14 15 13 22 20 20 21 20 17 14 12 18 5 10 8 3 2 2 5 6 8 11 14 13 10 13 10 7 5 2 2 -1 3 2 8 8 5 10 19 21 21 20 20 18 19 16 15 14 13 12 11 10 11 12
23 22 27 26 27 26 16 19 19 16 18 16 16 17 20 20 25 24 24 24 25 22 18 18 20 20 21 21 20 20 21 13 13 14 13 12 12 19 20 20 21 22 24 23 31 26 7 8 6 1 2 3 4 5 7 10 12 13 13 12 10 7 7 7 5 0 5 7 12 10 10 18 20 19 17 17 16 15 15 15 14 14 12 11 10 9 10 10
13 9 18 17 21 24 25 25 23 20 13 11 15 14 20 18 19 24 26 27 23 23 20 20 21 21 21 18 17 20 19 20 15 11 13 13 14 16 22 19 21 23 29 30 23 14 6 9 9 6 4 5 9 9 11 16 12 8 10 9 10 5 1 2 -1 3 7 11 10 13 15 14 13 16 13 14 14 13 14 14 13 12 11 10 9 9 10 8
18 18 12 9 23 21 20 24 24 23 15 20 14 16 12 19 19 19 25 16 23 22 21 23 22 16 16 16 17 18 20 17 16 15 12 12 13 16 16 21 21 23 30 28 21 7 3 5 6 10 8 11 11 11 12 15 12 12 10 11 10 9 1 2 5 9 14 12 7 16 16 13 12 12 13 13 13 13 14 12 11 10 10 9 9 10 13 8
18 17 17 17 18 11 20 17 23 23 23 23 15 18 17 16 16 13 18 21 24 23 12 12 18 20 20 18 18 9 14 15 14 8 12 12 13 18 16 17 18 21 23 17 14 10 5 5 5 8 5 9 13 13 13 13 13 13 12 12 11 9 10 9 10 14 13 10 8 11 15 13 12 11 12 13 13 13 12 10 10 10 9 8 10 9 8 6
23 22 24 23 16 16 21 18 25 22 22 23 24 20 16 18 15 18 18 20 17 15 16 11 16 18 21 22 17 12 14 10 10 9 13 13 13 15 10 11 19 18 19 16 13 4 6 2 4 6 10 12 12 12 12 12 11 11 10 13 13 12 11 11 11 11 11 10 11 13 14 12 11 11 12 12 11 11 10 10 10 9 8 9 9 7 6 5
17 18 15 22 24 22 23 22 23 21 17 22 14 16 20 18 17 20 21 19 12 15 21 18 19 20 21 22 20 12 16 16 14 12 12 15 15 11 11 12 14 19 18 15 11 13 12 6 11 4 4 9 10 9 9 11 10 10 12 13 13 13 12 13 13 13 13 11 12 14 14 12 13 11 11 11 11 11 10 9 9 8 8 8 8 7 6 5
23 25 23 20 19 18 22 21 21 21 19 19 15 14 20 17 19 22 22 21 15 18 20 20 20 22 22 20 21 19 21 20 20 19 19 19 12 17 11 10 21 17 15 11 9 11 10 9 -3 -6 5 6 8 9 11 11 9 10 12 13 13 13 13 15 14 14 14 13 13 13 10 10 11 11 11 11 10 9 9 9 8 8 8 7 6 6 6 3
29 30 26 22 15 19 16 19 19 21 14 15 18 17 17 19 21 21 10 19 23 20 21 22 22 21 19 17 16 20 21 22 23 23 23 23 23 23 22 20 21 17 13 11 8 7 3 6 5 0 4 -0 7 10 11 8 7 -1 8 13 13 14 15 17 15 15 15 14 12 9 8 10 10 12 10 10 10 9 9 9 8 7 7 6 5 5 3 0